Regional Weather Roundup
Issued by NWS

Home | Current Version | Previous Version | Text Only | Print | Product List | Glossary On
Versions: 1 2 3 4 5 6 7 8 9 10 11 12 13 14 15 16 17 18 19 20 21 22 23 24 25 26 27 28 29 30 31 32 33 34 35 36 37 38 39 40 41 42 43 44 45 46 47 48 49 50
000
ASPQ40 PGUM 040814
RWRPQ
WEATHER ROUNDUP FOR THE MARIANAS AND MICRONESIA
NATIONAL WEATHER SERVICE TIYAN GU
600 PM CHST SAT JUL 04 2015

GUZ001>004-040900-
MARIANA ISLANDS-

CITY           SKY/WX    TMP DP  RH WIND       PRES   REMARKS
GUAM AIRPORT   PTSUNNY   81  75  83 N14       29.54R
ANDERSEN AFB   CLOUDY    79  75  89 N15G21    29.54R
ROTA AIRPORT   NOT AVBL
TINIAN AP      NOT AVBL
SAIPAN AP      PTSUNNY   79  77  94 NE20G36   29.54R

$$

PMZ161-040900-
REPUBLIC OF PALAU-

CITY           SKY/WX    TMP DP  RH WIND       PRES   REMARKS
KOROR AP       CLOUDY    84  75  74 W12       29.76R HX  92
KOROR WSO      PTSUNNY   84  77  79 W10       29.76R HX  94

$$

PMZ171>174-040900-
FEDERATED STATES OF MICRONESIA-

CITY           SKY/WX    TMP DP  RH WIND       PRES   REMARKS
YAP AIRPORT    CLOUDY    81  75  83 W8        29.73R
CHUUK AP       CLOUDY    82  77  83 S14       29.68R HX  91
POHNPEI AP     NOT AVBL
POHNPEI WSO    NOT AVBL
KOSRAE AP      NOT AVBL

$$

PMZ181-040900-
REPUBLIC OF THE MARSHALL ISLANDS-

CITY           SKY/WX    TMP DP  RH WIND       PRES   REMARKS
KWAJALEIN AP   CLEAR     82  72  69 W14G21    29.68S
MAJURO AP      NOT AVBL
MAJURO WSO     MOCLDY    84  77  79 SW12      29.72R HX  94

$$



USA.gov is the U.S. government's official web portal to all federal, state and local government web resources and services.